This is the latest recevied weather packets stored in our database for station/object AC1IX. If no packets are shown the sender has not sent any weather packets the latest 10 day(s).
| Time | Temp. | Humidity | Pressure | Rain* | Wind** | Luminosity | Snow |
|---|---|---|---|---|---|---|---|
| 1777501692 | 16.67° C | 57% | 1010 hPa | 0 mm | - | 74 W/m² | - |
| 1777501389 | 16.67° C | 57% | 1010 hPa | 0 mm | - | 65 W/m² | - |
| 1777501087 | 16.67° C | 57% | 1009.8 hPa | 0 mm | - | 62 W/m² | - |
| 1777500784 | 17.22° C | 56% | 1009.9 hPa | 0 mm | - | 74 W/m² | - |
| 1777500482 | 17.22° C | 56% | 1010.2 hPa | 0 mm | - | 97 W/m² | - |
| 1777500177 | 17.22° C | 57% | 1010.2 hPa | 0 mm | - | 100 W/m² | - |
| 1777499875 | 17.22° C | 56% | 1010.4 hPa | 0 mm | - | 89 W/m² | - |
| 1777499570 | 17.22° C | 57% | 1010.3 hPa | 0 mm | - | 86 W/m² | - |
| 1777499269 | 17.22° C | 56% | 1010.2 hPa | 0 mm | - | 91 W/m² | - |
| 1777498966 | 17.78° C | 56% | 1010.2 hPa | 0 mm | - | 100 W/m² | - |
| 1777498662 | 17.78° C | 58% | 1010.5 hPa | 0 mm | - | 103 W/m² | - |
| 1777498358 | 17.78° C | 56% | 1010.7 hPa | 0 mm | - | 101 W/m² | - |
| 1777498056 | 17.78° C | 56% | 1010.6 hPa | 0 mm | - | 123 W/m² | - |
| 1777497752 | 17.78° C | 56% | 1011 hPa | 0 mm | - | 127 W/m² | - |
| 1777497450 | 17.78° C | 56% | 1010.7 hPa | 0 mm | - | 135 W/m² | - |
| 1777497145 | 18.33° C | 56% | 1010.6 hPa | 0 mm | - | 137 W/m² | - |
| 1777496842 | 17.78° C | 56% | 1010.9 hPa | 0 mm | - | 112 W/m² | - |
| 1777496539 | 18.33° C | 56% | 1011 hPa | 0 mm | - | 94 W/m² | - |
| 1777496235 | 18.33° C | 55% | 1010.9 hPa | 0 mm | - | 106 W/m² | - |
| 1777495931 | 18.33° C | 54% | 1011 hPa | 0 mm | - | 129 W/m² | - |
| 1777495627 | 18.33° C | 55% | 1011.2 hPa | 0 mm | - | 81 W/m² | - |
| 1777495323 | 18.89° C | 54% | 1011.2 hPa | 0 mm | - | 122 W/m² | - |
| 1777495021 | 18.89° C | 53% | 1011.1 hPa | 0 mm | - | 124 W/m² | - |
| 1777494718 | 18.89° C | 53% | 1011.1 hPa | 0 mm | - | 157 W/m² | - |
| 1777494415 | 18.89° C | 53% | 1011.1 hPa | 0 mm | - | 167 W/m² | - |
* Rain latest hour (hover to see other rain measurements)
** Current wind speed in m/s (hover to see current wind gust speed)